Content
SEND FEEDBACK

Daily
Averages
Monthly
Summary
United States of America

MOUNT VERNON, GEORGIA


Home > North America > United States > Georgia
Elevation: 244 feet     Latitude: 32 11N     Longitude: 082 34W

WEATHER
 
SELECT A DAY
Number of Records: 369,714;   Date Range: 1/6/99 - 7/7/14
 
SHARE

PRINT THIS DATA

[ ← Previous Day ]
WEATHER ALMANAC - FEBRUARY 13, 2013
[ Next Day → ]
[ °C ]   °F
Weather ElementAverageHighLow
Temperature60.1 °F71.6 °F (12:15 pm)51.8 °F (8:35 pm)
Dewpoint53.8 °F62.6 °F (9:35 am)46.4 °F (3:55 pm)
Humidity82.1 %100 % (1:35 am)49 % (2:55 pm)
Barometer29.83 in29.95 in (9:55 pm)29.76 in (5:15 am)
Wind Speed6.3 mph17.3 mph (4:55 pm)
Wind Gust25.3 mph (1:55 pm)
Weather ElementAverage
Visibility9.5 mi
Wind DirectionS (182.6 °)

Weather ElementTotal
Precipitation---
Heating Degree Days3.3 (Base 65)
Growing Degree Days11.7 (Base 50)
Averaged from 65 records on February 13, 2013
WEATHER CONDITIONS BREAKOUT
WIND DIRECTION BREAKOUT
WEATHER BY HOUR - FEBRUARY 13, 2013
[ °C ]   °F
Local TimeTemperatureDewpointHumidityBarometerVisibilityWind DirectionWind SpeedGust SpeedPrecipitationEventsConditions
12:35 AM59.0 °F57.2 °F94 %29.80 in10.0 miNE (40°)6.9 mphThunderstormThunderstorm
12:55 AM59.0 °F57.2 °F94 %29.82 in10.0 miENE (70°)4.6 mphRain-ThunderstormLight Thunderstorms and Rain
1:15 AM59.0 °F57.2 °F94 %29.79 in10.0 miENE (60°)5.8 mphRainLight Rain
1:35 AM57.2 °F57.2 °F100 %29.80 in10.0 miNNE (30°)5.8 mphThunderstormThunderstorm
1:55 AM57.2 °F57.2 °F100 %29.79 in10.0 miENE (60°)5.8 mphThunderstormThunderstorm
2:15 AM57.2 °F57.2 °F100 %29.78 in10.0 miEast (80°)4.6 mphRain-ThunderstormLight Thunderstorms and Rain
2:35 AM57.2 °F57.2 °F100 %29.79 in7.0 miCalmThunderstorm
2:55 AM57.2 °F57.2 °F100 %29.79 in10.0 miNorth (360°)4.6 mphThunderstormThunderstorm
3:15 AM57.2 °F55.4 °F94 %29.78 in10.0 miCalmThunderstorm
3:55 AM57.2 °F55.4 °F94 %29.77 in7.0 miNNE (30°)3.5 mphOvercast
4:15 AM57.2 °F55.4 °F94 %29.77 in10.0 miCalmRainLight Rain
4:35 AM57.2 °F55.4 °F94 %29.77 in10.0 miCalmOvercast
4:55 AM57.2 °F55.4 °F94 %29.77 in10.0 miCalmThunderstormOvercast
5:15 AM57.2 °F55.4 °F94 %29.76 in10.0 miCalmThunderstormOvercast
5:35 AM57.2 °F55.4 °F94 %29.76 in10.0 miCalmOvercast
5:55 AM57.2 °F55.4 °F94 %29.78 in10.0 miCalmOvercast
6:15 AM57.2 °F55.4 °F94 %29.78 in10.0 miCalmOvercast
6:35 AM57.2 °F57.2 °F100 %29.79 in5.0 miCalmOvercast
6:55 AM57.2 °F55.4 °F94 %29.80 in7.0 miCalmOvercast
7:15 AM57.2 °F57.2 °F100 %29.80 in10.0 miCalmOvercast
7:35 AM59.0 °F57.2 °F94 %29.80 in5.0 miCalmOvercast
7:55 AM59.0 °F57.2 °F94 %29.81 in10.0 miCalmOvercast
8:15 AM59.0 °F59.0 °F100 %29.81 in10.0 miCalmOvercast
8:35 AM59.0 °F59.0 °F100 %29.81 in10.0 miSSW (210°)3.5 mphOvercast
9:15 AM62.6 °F60.8 °F94 %29.82 in5.0 miWSW (250°)5.8 mphOvercast
9:35 AM62.6 °F62.6 °F100 %29.83 in7.0 miWSW (240°)9.2 mphOvercast
9:55 AM64.4 °F62.6 °F94 %29.83 in7.0 miWSW (250°)10.4 mph17.3 mphOvercast
10:15 AM64.4 °F62.6 °F94 %29.83 in10.0 miWSW (250°)10.4 mph21.9 mphOvercast
10:35 AM66.2 °F62.6 °F88 %29.83 in10.0 miWSW (250°)11.5 mph18.4 mphOvercast
10:55 AM68.0 °F60.8 °F78 %29.83 in10.0 miWest (260°)12.7 mph20.7 mphScattered Clouds
11:15 AM68.0 °F59.0 °F73 %29.81 in10.0 miWSW (240°)8.1 mphClear
11:55 AM69.8 °F55.4 °F60 %29.81 in10.0 miWSW (250°)12.7 mph18.4 mphClear
12:15 PM71.6 °F55.4 °F57 %29.80 in10.0 miWSW (250°)10.4 mph19.6 mphClear
12:35 PM69.8 °F53.6 °F56 %29.79 in10.0 miWSW (250°)10.4 mph18.4 mphScattered Clouds
12:55 PM69.8 °F51.8 °F53 %29.77 in10.0 miWSW (250°)11.5 mph17.3 mphScattered Clouds
1:15 PM69.8 °F51.8 °F53 %29.78 in10.0 miWest (270°)10.4 mph18.4 mphClear
1:55 PM69.8 °F51.8 °F53 %29.78 in10.0 miWest (280°)8.1 mph25.3 mphClear
2:15 PM69.8 °F51.8 °F53 %29.78 in10.0 miWNW (290°)10.4 mph16.1 mphClear
2:35 PM69.8 °F53.6 °F56 %29.77 in10.0 miWest (280°)5.8 mphScattered Clouds
2:55 PM69.8 °F50.0 °F49 %29.77 in10.0 miWNW (290°)10.4 mph19.6 mphScattered Clouds
3:15 PM68.0 °F50.0 °F52 %29.79 in10.0 miWNW (290°)10.4 mph17.3 mphMostly Cloudy
3:35 PM68.0 °F48.2 °F49 %29.80 in10.0 miWest (280°)10.4 mph16.1 mphOvercast
3:55 PM66.2 °F46.4 °F49 %29.83 in10.0 miWest (260°)11.5 mph16.1 mphOvercast
4:15 PM64.4 °F46.4 °F52 %29.82 in10.0 miWest (260°)5.8 mph16.1 mphRainLight Rain
4:35 PM64.4 °F46.4 °F52 %29.83 in10.0 miWSW (250°)10.4 mphOvercast
4:55 PM64.4 °F48.2 °F56 %29.84 in10.0 miWest (260°)17.3 mph25.3 mphOvercast
5:15 PM62.6 °F50.0 °F63 %29.84 in10.0 miWSW (250°)12.7 mph18.4 mphRainLight Rain
5:35 PM62.6 °F50.0 °F63 %29.83 in10.0 miWest (260°)6.9 mphOvercast
5:55 PM62.6 °F50.0 °F63 %29.83 in10.0 miWSW (250°)12.7 mphOvercast
6:15 PM60.8 °F50.0 °F68 %29.85 in10.0 miWest (280°)13.8 mph25.3 mphRainRain
6:35 PM57.2 °F51.8 °F82 %29.86 in10.0 miWest (260°)6.9 mph17.3 mphRainLight Rain
6:55 PM55.4 °F51.8 °F88 %29.89 in10.0 miWest (260°)9.2 mphRainLight Rain
7:15 PM55.4 °F53.6 °F94 %29.91 in10.0 miWest (280°)8.1 mphRainLight Rain
7:55 PM53.6 °F50.0 °F88 %29.91 in10.0 miWest (280°)8.1 mphRainLight Rain
8:15 PM53.6 °F50.0 °F88 %29.91 in10.0 miWest (260°)4.6 mphOvercast
8:35 PM51.8 °F50.0 °F94 %29.91 in10.0 miWNW (290°)5.8 mphOvercast
8:55 PM51.8 °F50.0 °F94 %29.92 in10.0 miWest (270°)3.5 mphMostly Cloudy
9:15 PM51.8 °F50.0 °F94 %29.93 in10.0 miWest (280°)3.5 mphClear
9:55 PM51.8 °F50.0 °F94 %29.95 in10.0 miWest (280°)5.8 mphClear
10:15 PM51.8 °F50.0 °F94 %29.95 in10.0 miWest (280°)5.8 mphClear
10:35 PM51.8 °F48.2 °F88 %29.94 in10.0 miWNW (300°)6.9 mphClear
10:55 PM51.8 °F48.2 °F88 %29.94 in10.0 miWest (270°)5.8 mphClear
11:15 PM51.8 °F48.2 °F88 %29.93 in10.0 miWNW (290°)5.8 mphClear
11:35 PM51.8 °F48.2 °F88 %29.95 in10.0 miWest (270°)5.8 mphClear
11:55 PM51.8 °F48.2 °F88 %29.94 in10.0 miWest (270°)5.8 mphScattered Clouds
Hourly data recorded from KVDI, located miles away from Mount Vernon, Georgia







STORIES FROM OUR PARTNERS